DMSP 5D-2 F13 DEB, 40577

Orbit data source: Space-Track

DMSP 5D-2 F13 DEB, 40577 is space debris in SSO originally from a launch on Fri, 24 Mar 1995 UTC launched from the Air Force Western Test Range (AFWTR). Debris objects in space refer to the collection of defunct objects orbiting the Earth. Examples of debris include non-operational satellites, rocket bodies, and fragments generated from explosions, collisions, or faulty payload assembly.

Loading next visibility...
Identifier
40577, 1995-015EL
Orbit
SSO
Country
Flag of USUS
Related business
Manufacturer
Unknown
Mission
Spacecraft
Bus & Motor
Unknown
Mass
Unknown
Launch date (UTC)
1995-03-24 (31 years ago)
Launch vehicle
Unknown
Launch site
Air Force Western Test Range (AFWTR)
Object type
Payload
Rocket body
Debris
Shape & HBR
Unknown shape, 0.1 m
Radar Cross Section
Small (<0.1 m²)

Expand to show TLE details & history
Last TLE update: 3 days ago

TLE from 3 days ago
0 DMSP 5D-2 F13 DEB
1 40577U 95015EL  26033.38115657  .00008331  00000-0  21461-2 0  9994
2 40577  98.6610  80.6314 0012897 204.1195 155.9396 14.50285497564037
Epoch: 2026-02-02T09:08Z
TLE epoch observation values (Epoch: 2026-02-02T09:08:51.927Z)
Latitude
-0.00002°
Longitude
170.83778°
Altitude
736.042 km
Speed
7.483 km/s
True Right ascension
05h 22m 31s
True Declination
0° 00' 00"
Sunlit
Object was in full shadow at epoch
Visualization orbit readout
Latitude
Unknown
Longitude
Unknown
Altitude
Unknown
Speed
Unknown
Apparent Right ascension
Unknown
Apparent Declination
Unknown
Sunlit
N/A
Visualization observer readout
Local Sidereal Time
02:31:56
Azimuth
Unknown
Elevation
Unknown
Doppler factor
Unknown
Orbital elements
Apogee altitude
730.989 km
Perigee altitude
712.675 km
Semi-major axis
7,099.969 km
Eccentricity
0.00129
Inclination
98.661°
RAAN
80.6314°
Arg. of periapsis
204.1195°
True anomaly
155.99976°
Mean anomaly
155.9396°
Eccentric anomaly
155.96969°
Mean motion
3.62793 °/min
Orbital period
99.23 mins
BSTAR
0.0021461
Loading maneuver chart data...
Computing Atmospheric mass density...

Documentation

Showing up to 5 results
|